Time,TemperatureF,DewpointF,PressureIn,WindDirection,WindDirectionDegrees,WindSpeedMPH,WindSpeedGustMPH,Humidity,HourlyPrecipIn,Conditions,Clouds,dailyrainin,SoftwareType,DateUTC
2013-03-31 00:02:00,52.0,37.0,29.81,NNW,336,0.0,0.0,56,0.00,,,0.31,,2013-03-31 05:02:00,
2013-03-31 00:12:00,52.0,37.0,29.81,NNW,336,0.0,0.0,56,0.00,,,0.31,,2013-03-31 05:12:00,
2013-03-31 00:22:00,51.0,38.0,29.82,NNW,336,0.0,2.0,60,0.00,,,0.31,,2013-03-31 05:22:00,
2013-03-31 00:32:00,51.0,38.0,29.82,NNW,336,0.0,0.0,60,0.00,,,0.31,,2013-03-31 05:32:00,
2013-03-31 00:42:00,51.0,38.0,29.82,NNW,336,0.0,0.0,60,0.00,,,0.31,,2013-03-31 05:42:00,
2013-03-31 00:53:00,51.0,38.0,29.83,NW,323,0.0,3.0,61,0.00,,,0.31,,2013-03-31 05:53:00,
2013-03-31 01:02:00,51.0,38.0,29.83,NW,323,0.0,3.0,61,0.00,,,0.31,,2013-03-31 06:02:00,
2013-03-31 01:12:00,51.0,38.0,29.83,NW,323,0.0,3.0,61,0.00,,,0.31,,2013-03-31 06:12:00,
2013-03-31 01:22:00,51.0,40.0,29.83,WSW,254,1.0,7.0,66,0.00,,,0.31,,2013-03-31 06:22:00,
2013-03-31 01:32:00,50.0,40.0,29.83,WSW,254,0.0,1.0,68,0.00,,,0.31,,2013-03-31 06:32:00,
2013-03-31 01:42:00,50.0,40.0,29.83,WSW,254,0.0,1.0,68,0.00,,,0.31,,2013-03-31 06:42:00,
2013-03-31 01:52:00,49.0,40.0,29.83,WSW,254,0.0,0.0,72,0.00,,,0.31,,2013-03-31 06:52:00,
2013-03-31 02:02:00,49.0,41.0,29.83,WSW,254,0.0,0.0,73,0.00,,,0.31,,2013-03-31 07:02:00,
2013-03-31 02:12:00,49.0,41.0,29.83,WSW,254,0.0,0.0,73,0.00,,,0.31,,2013-03-31 07:12:00,
2013-03-31 02:22:00,48.0,41.0,29.83,WSW,254,0.0,0.0,76,0.00,,,0.31,,2013-03-31 07:22:00,
2013-03-31 02:32:00,48.0,41.0,29.83,WSW,254,0.0,0.0,76,0.00,,,0.31,,2013-03-31 07:32:00,
2013-03-31 02:42:00,48.0,41.0,29.83,WSW,254,0.0,0.0,76,0.00,,,0.31,,2013-03-31 07:42:00,
2013-03-31 02:53:00,48.0,41.0,29.83,WSW,254,0.0,0.0,77,0.00,,,0.24,,2013-03-31 07:53:00,
2013-03-31 03:02:00,48.0,41.0,29.83,WSW,254,0.0,0.0,77,0.00,,,0.24,,2013-03-31 08:02:00,
2013-03-31 03:12:00,48.0,41.0,29.83,WSW,254,0.0,0.0,77,0.00,,,0.24,,2013-03-31 08:12:00,
2013-03-31 03:22:00,47.0,41.0,29.83,WSW,254,0.0,0.0,78,0.00,,,0.18,,2013-03-31 08:22:00,
2013-03-31 03:32:00,47.0,41.0,29.83,WSW,254,0.0,0.0,78,0.00,,,0.18,,2013-03-31 08:32:00,
2013-03-31 03:42:00,47.0,41.0,29.83,WSW,254,0.0,0.0,78,0.00,,,0.18,,2013-03-31 08:42:00,
2013-03-31 03:52:00,46.0,40.0,29.82,WSW,254,0.0,0.0,78,0.00,,,0.17,,2013-03-31 08:52:00,
2013-03-31 04:02:00,46.0,40.0,29.82,WSW,254,0.0,0.0,79,0.00,,,0.17,,2013-03-31 09:02:00,
2013-03-31 04:12:00,46.0,40.0,29.82,WSW,254,0.0,0.0,79,0.00,,,0.17,,2013-03-31 09:12:00,
2013-03-31 04:22:00,45.0,39.0,29.82,WSW,254,0.0,0.0,78,0.00,,,0.17,,2013-03-31 09:22:00,
2013-03-31 04:33:00,45.0,39.0,29.82,WSW,254,0.0,0.0,80,0.00,,,0.17,,2013-03-31 09:33:00,
2013-03-31 04:42:00,45.0,39.0,29.82,WSW,254,0.0,0.0,80,0.00,,,0.17,,2013-03-31 09:42:00,
2013-03-31 04:53:00,44.0,38.0,29.82,WSW,254,0.0,0.0,80,0.00,,,0.17,,2013-03-31 09:53:00,
2013-03-31 05:03:00,43.0,38.0,29.83,WSW,254,0.0,0.0,83,0.00,,,0.17,,2013-03-31 10:03:00,
2013-03-31 05:13:00,43.0,38.0,29.83,WSW,254,0.0,0.0,83,0.00,,,0.17,,2013-03-31 10:13:00,
2013-03-31 05:23:00,43.0,39.0,29.83,WSW,254,0.0,0.0,85,0.00,,,0.17,,2013-03-31 10:23:00,
2013-03-31 05:32:00,43.0,39.0,29.83,WSW,254,0.0,0.0,85,0.00,,,0.17,,2013-03-31 10:32:00,
2013-03-31 05:42:00,43.0,39.0,29.83,WSW,254,0.0,0.0,85,0.00,,,0.17,,2013-03-31 10:42:00,
2013-03-31 05:53:00,43.0,39.0,29.83,WSW,254,0.0,0.0,85,0.00,,,0.17,,2013-03-31 10:53:00,
2013-03-31 06:02:00,43.0,39.0,29.83,WSW,254,0.0,0.0,86,0.00,,,0.14,,2013-03-31 11:02:00,
2013-03-31 06:12:00,43.0,39.0,29.83,WSW,254,0.0,0.0,86,0.00,,,0.14,,2013-03-31 11:12:00,
2013-03-31 06:23:00,42.0,38.0,29.83,WSW,254,0.0,0.0,87,0.00,,,0.04,,2013-03-31 11:23:00,
2013-03-31 06:32:00,42.0,38.0,29.84,WSW,254,0.0,0.0,87,0.00,,,0.02,,2013-03-31 11:32:00,
2013-03-31 06:42:00,42.0,38.0,29.84,WSW,254,0.0,0.0,87,0.00,,,0.02,,2013-03-31 11:42:00,
2013-03-31 06:53:00,42.0,39.0,29.84,WSW,254,0.0,0.0,88,0.00,,,0.01,,2013-03-31 11:53:00,
2013-03-31 07:02:00,42.0,39.0,29.84,WSW,254,0.0,2.0,88,0.00,,,0.00,,2013-03-31 12:02:00,
2013-03-31 07:12:00,42.0,39.0,29.84,WSW,254,0.0,2.0,88,0.00,,,0.00,,2013-03-31 12:12:00,
2013-03-31 07:22:00,42.0,38.0,29.84,WSW,256,0.0,1.0,86,0.00,,,0.00,,2013-03-31 12:22:00,
2013-03-31 07:33:00,41.0,37.0,29.85,WSW,256,0.0,0.0,86,0.00,,,0.00,,2013-03-31 12:33:00,
2013-03-31 07:42:00,41.0,37.0,29.85,WSW,256,0.0,0.0,86,0.00,,,0.00,,2013-03-31 12:42:00,
2013-03-31 07:53:00,41.0,37.0,29.85,WSW,256,0.0,0.0,87,0.00,,,0.00,,2013-03-31 12:53:00,
2013-03-31 08:02:00,41.0,37.0,29.86,NW,305,0.0,5.0,86,0.00,,,0.00,,2013-03-31 13:02:00,
2013-03-31 08:12:00,41.0,37.0,29.86,NW,305,0.0,5.0,86,0.00,,,0.00,,2013-03-31 13:12:00,
2013-03-31 08:22:00,42.0,38.0,29.86,NW,306,0.0,5.0,86,0.00,,,0.00,,2013-03-31 13:22:00,
2013-03-31 08:32:00,41.0,37.0,29.87,NW,320,0.0,6.0,85,0.00,,,0.00,,2013-03-31 13:32:00,
2013-03-31 08:42:00,41.0,37.0,29.87,NW,320,0.0,6.0,85,0.00,,,0.00,,2013-03-31 13:42:00,
2013-03-31 08:52:00,42.0,37.0,29.88,NW,313,1.0,5.0,83,0.00,,,0.00,,2013-03-31 13:52:00,
2013-03-31 09:02:00,42.0,37.0,29.88,WNW,285,0.0,4.0,82,0.00,,,0.00,,2013-03-31 14:02:00,
2013-03-31 09:12:00,42.0,37.0,29.88,WNW,285,0.0,4.0,82,0.00,,,0.00,,2013-03-31 14:12:00,
2013-03-31 09:22:00,43.0,38.0,29.88,NW,321,0.0,5.0,81,0.00,,,0.00,,2013-03-31 14:22:00,
2013-03-31 09:32:00,44.0,37.0,29.88,NNW,327,2.0,10.0,77,0.00,,,0.00,,2013-03-31 14:32:00,
2013-03-31 09:42:00,44.0,37.0,29.88,NNW,327,2.0,10.0,77,0.00,,,0.00,,2013-03-31 14:42:00,
2013-03-31 09:52:00,45.0,37.0,29.88,NW,317,1.0,10.0,74,0.00,,,0.00,,2013-03-31 14:52:00,
2013-03-31 10:03:00,46.0,36.0,29.88,NNW,327,2.0,9.0,68,0.00,,,0.00,,2013-03-31 15:03:00,
2013-03-31 10:13:00,46.0,36.0,29.88,NNW,327,2.0,9.0,68,0.00,,,0.00,,2013-03-31 15:13:00,
2013-03-31 10:22:00,47.0,36.0,29.88,NNW,335,2.0,9.0,66,0.00,,,0.00,,2013-03-31 15:22:00,
2013-03-31 10:33:00,48.0,36.0,29.88,NW,304,2.0,10.0,63,0.00,,,0.00,,2013-03-31 15:33:00,
2013-03-31 10:43:00,48.0,36.0,29.88,NW,304,2.0,10.0,63,0.00,,,0.00,,2013-03-31 15:43:00,
2013-03-31 10:53:00,49.0,36.0,29.88,SW,236,3.0,11.0,60,0.00,,,0.00,,2013-03-31 15:53:00,
2013-03-31 11:03:00,49.0,34.0,29.88,West,278,6.0,16.0,56,0.00,,,0.00,,2013-03-31 16:03:00,
2013-03-31 11:13:00,49.0,34.0,29.88,West,278,6.0,16.0,56,0.00,,,0.00,,2013-03-31 16:13:00,
2013-03-31 11:23:00,50.0,35.0,29.88,WNW,284,4.0,16.0,56,0.00,,,0.00,,2013-03-31 16:23:00,
2013-03-31 11:33:00,50.0,33.0,29.88,NW,314,5.0,14.0,52,0.00,,,0.00,,2013-03-31 16:33:00,
2013-03-31 11:43:00,50.0,33.0,29.88,NW,314,5.0,14.0,52,0.00,,,0.00,,2013-03-31 16:43:00,
2013-03-31 11:53:00,51.0,29.0,29.88,NW,318,6.0,14.0,43,0.00,,,0.00,,2013-03-31 16:53:00,
2013-03-31 12:03:00,52.0,27.0,29.88,West,271,5.0,15.0,38,0.00,,,0.00,,2013-03-31 17:03:00,
2013-03-31 12:12:00,52.0,27.0,29.88,West,271,5.0,15.0,38,0.00,,,0.00,,2013-03-31 17:12:00,
2013-03-31 12:23:00,52.0,27.0,29.88,West,271,5.0,15.0,38,0.00,,,0.00,,2013-03-31 17:23:00,
2013-03-31 12:32:00,53.0,26.0,29.88,NW,321,5.0,18.0,35,0.00,,,0.00,,2013-03-31 17:32:00,
2013-03-31 12:43:00,53.0,26.0,29.88,NW,321,5.0,18.0,35,0.00,,,0.00,,2013-03-31 17:43:00,
2013-03-31 12:52:00,53.0,26.0,29.88,NW,321,5.0,18.0,35,0.00,,,0.00,,2013-03-31 17:52:00,
2013-03-31 13:02:00,54.0,24.0,29.88,NNW,338,5.0,17.0,31,0.00,,,0.00,,2013-03-31 18:02:00,
2013-03-31 13:13:00,54.0,24.0,29.88,NNW,338,5.0,17.0,31,0.00,,,0.00,,2013-03-31 18:13:00,
2013-03-31 13:22:00,54.0,25.0,29.88,SW,221,5.0,17.0,32,0.00,,,0.00,,2013-03-31 18:22:00,
2013-03-31 13:32:00,55.0,24.0,29.88,NW,317,5.0,16.0,30,0.00,,,0.00,,2013-03-31 18:32:00,
2013-03-31 13:42:00,55.0,24.0,29.88,NW,317,5.0,16.0,30,0.00,,,0.00,,2013-03-31 18:42:00,
2013-03-31 13:52:00,55.0,22.0,29.88,NW,323,4.0,14.0,27,0.00,,,0.00,,2013-03-31 18:52:00,
2013-03-31 14:03:00,56.0,20.0,29.88,NW,320,5.0,18.0,24,0.00,,,0.00,,2013-03-31 19:03:00,
2013-03-31 14:12:00,56.0,20.0,29.88,NW,320,5.0,18.0,24,0.00,,,0.00,,2013-03-31 19:12:00,
2013-03-31 14:22:00,56.0,20.0,29.88,NW,320,5.0,18.0,24,0.00,,,0.00,,2013-03-31 19:22:00,
2013-03-31 14:33:00,56.0,20.0,29.88,NW,305,5.0,12.0,24,0.00,,,0.00,,2013-03-31 19:33:00,
2013-03-31 14:42:00,56.0,20.0,29.88,NW,305,5.0,12.0,24,0.00,,,0.00,,2013-03-31 19:42:00,
2013-03-31 14:54:00,56.0,19.0,29.88,WNW,302,5.0,12.0,23,0.00,,,0.00,,2013-03-31 19:54:00,
2013-03-31 15:03:00,56.0,18.0,29.87,NNW,344,4.0,14.0,22,0.00,,,0.00,,2013-03-31 20:03:00,
2013-03-31 15:12:00,56.0,18.0,29.87,NNW,344,4.0,14.0,22,0.00,,,0.00,,2013-03-31 20:12:00,
2013-03-31 15:22:00,56.0,18.0,29.87,NNW,344,4.0,14.0,22,0.00,,,0.00,,2013-03-31 20:22:00,
2013-03-31 15:33:00,57.0,17.0,29.86,NNW,331,6.0,15.0,21,0.00,,,0.00,,2013-03-31 20:33:00,
2013-03-31 15:43:00,57.0,17.0,29.86,NNW,331,6.0,15.0,21,0.00,,,0.00,,2013-03-31 20:43:00,
2013-03-31 15:53:00,57.0,17.0,29.85,NW,305,5.0,15.0,21,0.00,,,0.00,,2013-03-31 20:53:00,
2013-03-31 16:02:00,57.0,16.0,29.85,NNW,329,3.0,13.0,20,0.00,,,0.00,,2013-03-31 21:02:00,
2013-03-31 16:12:00,57.0,16.0,29.85,NNW,329,3.0,13.0,20,0.00,,,0.00,,2013-03-31 21:12:00,
2013-03-31 16:22:00,58.0,19.0,29.85,NNW,338,3.0,13.0,22,0.00,,,0.00,,2013-03-31 21:22:00,
2013-03-31 16:33:00,57.0,17.0,29.85,NW,324,4.0,15.0,21,0.00,,,0.00,,2013-03-31 21:33:00,
2013-03-31 16:40:00,58.0,19.0,29.85,NW,326,4.0,11.0,22,0.00,,,0.00,,2013-03-31 21:40:00,
2013-03-31 16:43:00,57.0,17.0,29.85,NW,324,4.0,15.0,21,0.00,,,0.00,,2013-03-31 21:43:00,
2013-03-31 16:54:00,57.0,17.0,29.85,NW,324,4.0,15.0,21,0.00,,,0.00,,2013-03-31 21:54:00,
2013-03-31 17:03:00,58.0,19.0,29.85,NW,326,4.0,11.0,22,0.00,,,0.00,,2013-03-31 22:03:00,
2013-03-31 17:13:00,58.0,19.0,29.85,NW,326,4.0,11.0,22,0.00,,,0.00,,2013-03-31 22:13:00,
2013-03-31 17:23:00,58.0,19.0,29.85,NW,326,4.0,11.0,22,0.00,,,0.00,,2013-03-31 22:23:00,
2013-03-31 17:33:00,58.0,19.0,29.85,NW,326,4.0,11.0,22,0.00,,,0.00,,2013-03-31 22:33:00,
2013-03-31 17:53:00,57.0,17.0,29.85,NNW,344,4.0,14.0,21,0.00,,,0.00,,2013-03-31 22:53:00,
2013-03-31 18:03:00,56.0,16.0,29.85,North,351,4.0,10.0,20,0.00,,,0.00,,2013-03-31 23:03:00,
2013-03-31 18:13:00,56.0,16.0,29.85,North,351,4.0,10.0,20,0.00,,,0.00,,2013-03-31 23:13:00,
2013-03-31 18:22:00,56.0,17.0,29.85,NW,318,2.0,10.0,21,0.00,,,0.00,,2013-03-31 23:22:00,
2013-03-31 18:32:00,55.0,17.0,29.85,NNW,336,4.0,10.0,22,0.00,,,0.00,,2013-03-31 23:32:00,
2013-03-31 18:42:00,55.0,17.0,29.85,NNW,336,4.0,10.0,22,0.00,,,0.00,,2013-03-31 23:42:00,
2013-03-31 18:53:00,54.0,19.0,29.85,NNW,343,3.0,12.0,25,0.00,,,0.00,,2013-03-31 23:53:00,
2013-03-31 19:02:00,54.0,19.0,29.85,NE,50,2.0,12.0,25,0.00,,,0.00,,2013-04-01 00:02:00,
2013-03-31 19:12:00,54.0,19.0,29.85,NE,50,2.0,12.0,25,0.00,,,0.00,,2013-04-01 00:12:00,
2013-03-31 19:22:00,53.0,20.0,29.85,NNE,25,3.0,10.0,27,0.00,,,0.00,,2013-04-01 00:22:00,
2013-03-31 19:32:00,52.0,19.0,29.85,North,355,2.0,11.0,27,0.00,,,0.00,,2013-04-01 00:32:00,
2013-03-31 19:42:00,52.0,19.0,29.85,North,355,2.0,11.0,27,0.00,,,0.00,,2013-04-01 00:42:00,
2013-03-31 19:53:00,51.0,20.0,29.87,NE,36,5.0,16.0,29,0.00,,,0.00,,2013-04-01 00:53:00,
2013-03-31 20:02:00,50.0,20.0,29.87,NNW,333,5.0,16.0,30,0.00,,,0.00,,2013-04-01 01:02:00,
2013-03-31 20:12:00,50.0,20.0,29.87,NNW,333,5.0,16.0,30,0.00,,,0.00,,2013-04-01 01:12:00,
2013-03-31 20:22:00,50.0,21.0,29.89,NNW,332,5.0,12.0,32,0.00,,,0.00,,2013-04-01 01:22:00,
2013-03-31 20:32:00,50.0,21.0,29.89,NNW,332,5.0,12.0,32,0.00,,,0.00,,2013-04-01 01:32:00,
2013-03-31 20:42:00,50.0,21.0,29.89,NNW,332,5.0,12.0,32,0.00,,,0.00,,2013-04-01 01:42:00,
2013-03-31 20:53:00,49.0,21.0,29.89,North,11,6.0,14.0,33,0.00,,,0.00,,2013-04-01 01:53:00,
2013-03-31 21:02:00,48.0,24.0,29.90,NE,38,8.0,18.0,39,0.00,,,0.00,,2013-04-01 02:02:00,
2013-03-31 21:12:00,48.0,24.0,29.90,NE,38,8.0,18.0,39,0.00,,,0.00,,2013-04-01 02:12:00,
2013-03-31 21:22:00,45.0,25.0,29.94,North,5,10.0,20.0,46,0.00,,,0.00,,2013-04-01 02:22:00,
2013-03-31 21:33:00,45.0,27.0,29.94,North,355,8.0,17.0,49,0.00,,,0.00,,2013-04-01 02:33:00,
2013-03-31 21:42:00,45.0,27.0,29.94,North,355,8.0,17.0,49,0.00,,,0.00,,2013-04-01 02:42:00,
2013-03-31 21:53:00,44.0,28.0,29.95,NNW,346,8.0,18.0,53,0.00,,,0.00,,2013-04-01 02:53:00,
2013-03-31 22:02:00,42.0,31.0,29.96,North,9,10.0,19.0,65,0.00,,,0.00,,2013-04-01 03:02:00,
2013-03-31 22:12:00,42.0,31.0,29.96,North,9,10.0,19.0,65,0.00,,,0.00,,2013-04-01 03:12:00,
2013-03-31 22:22:00,39.0,34.0,30.01,NNW,327,7.0,15.0,82,0.00,,,0.00,,2013-04-01 03:22:00,
2013-03-31 22:34:00,39.0,35.0,30.01,NNE,17,5.0,13.0,84,0.00,,,0.00,,2013-04-01 03:34:00,
2013-03-31 22:43:00,39.0,35.0,30.01,NNE,17,5.0,13.0,84,0.00,,,0.00,,2013-04-01 03:43:00,
2013-03-31 22:53:00,37.0,34.0,30.02,NW,323,6.0,15.0,87,0.04,,,0.02,,2013-04-01 03:53:00,
2013-03-31 23:03:00,37.0,34.0,30.02,NW,323,6.0,15.0,87,0.04,,,0.02,,2013-04-01 04:03:00,
2013-03-31 23:13:00,37.0,34.0,30.02,NW,323,6.0,15.0,87,0.04,,,0.02,,2013-04-01 04:13:00,
2013-03-31 23:23:00,35.0,32.0,30.02,NNW,346,5.0,12.0,90,0.00,,,0.02,,2013-04-01 04:23:00,
2013-03-31 23:33:00,35.0,33.0,30.04,North,355,5.0,11.0,92,0.00,,,0.03,,2013-04-01 04:33:00,
2013-03-31 23:43:00,35.0,33.0,30.04,North,355,5.0,11.0,92,0.00,,,0.03,,2013-04-01 04:43:00,
2013-03-31 23:53:00,34.0,32.0,30.03,NNW,327,6.0,12.0,92,0.00,,,0.03,,2013-04-01 04:53:00,